Time,TemperatureF,DewpointF,PressureIn,WindDirection,WindDirectionDegrees,WindSpeedMPH,WindSpeedGustMPH,Humidity,HourlyPrecipIn,Conditions,Clouds,dailyrainin,SoftwareType,DateUTC
2013-08-08 00:01:00,71.2,66.5,30.10,SSE,166,7.0,12.0,85,0.00,,CLR,0.00,VWS V14.00,2013-08-08 04:01:00,
2013-08-08 00:06:00,71.2,66.5,30.09,SSE,164,7.0,10.0,85,0.00,,CLR,0.00,VWS V14.00,2013-08-08 04:06:00,
2013-08-08 00:11:00,71.2,66.5,30.09,SSE,164,6.0,11.0,85,0.00,,CLR,0.00,VWS V14.00,2013-08-08 04:11:00,
2013-08-08 00:16:00,71.1,66.7,30.09,SSE,153,5.0,11.0,86,0.00,,CLR,0.00,VWS V14.00,2013-08-08 04:16:00,
2013-08-08 00:21:00,71.1,66.7,30.08,SSE,155,6.0,9.0,86,0.00,,CLR,0.00,VWS V14.00,2013-08-08 04:21:00,
2013-08-08 00:26:00,71.1,66.7,30.08,SSE,156,4.0,7.0,86,0.00,,CLR,0.00,VWS V14.00,2013-08-08 04:26:00,
2013-08-08 00:31:00,71.1,66.7,30.08,SSE,167,2.0,7.0,86,0.00,,CLR,0.00,VWS V14.00,2013-08-08 04:31:00,
2013-08-08 00:36:00,71.1,66.7,30.08,SSE,164,3.0,10.0,86,0.00,,CLR,0.00,VWS V14.00,2013-08-08 04:36:00,
2013-08-08 00:41:00,71.2,66.8,30.08,SSE,167,1.0,6.0,86,0.00,,CLR,0.00,VWS V14.00,2013-08-08 04:41:00,
2013-08-08 00:46:00,71.2,66.8,30.08,SSE,163,0.0,9.0,86,0.00,,CLR,0.00,VWS V14.00,2013-08-08 04:46:00,
2013-08-08 00:51:00,71.2,67.1,30.08,SSE,167,6.0,6.0,87,0.00,,CLR,0.00,VWS V14.00,2013-08-08 04:51:00,
2013-08-08 00:56:00,71.2,66.8,30.08,South,169,2.0,7.0,86,0.00,,CLR,0.00,VWS V14.00,2013-08-08 04:56:00,
2013-08-08 01:01:00,71.3,66.9,30.08,South,172,0.0,11.0,86,0.00,,CLR,0.00,VWS V14.00,2013-08-08 05:01:00,
2013-08-08 01:06:00,71.3,66.9,30.08,SE,146,9.0,10.0,86,0.00,,CLR,0.00,VWS V14.00,2013-08-08 05:06:00,
2013-08-08 01:11:00,71.3,67.2,30.08,South,169,2.0,11.0,87,0.00,,CLR,0.00,VWS V14.00,2013-08-08 05:11:00,
2013-08-08 01:16:00,71.3,67.2,30.08,South,172,6.0,10.0,87,0.00,,CLR,0.00,VWS V14.00,2013-08-08 05:16:00,
2013-08-08 01:21:00,71.3,67.2,30.08,SSE,159,2.0,10.0,87,0.00,,CLR,0.00,VWS V14.00,2013-08-08 05:21:00,
2013-08-08 01:26:00,71.3,67.2,30.08,SSE,168,7.0,10.0,87,0.00,,CLR,0.00,VWS V14.00,2013-08-08 05:26:00,
2013-08-08 01:31:00,71.3,67.2,30.07,South,169,10.0,11.0,87,0.00,,CLR,0.00,VWS V14.00,2013-08-08 05:31:00,
2013-08-08 01:36:00,71.2,67.1,30.08,SSE,166,3.0,9.0,87,0.00,,CLR,0.00,VWS V14.00,2013-08-08 05:36:00,
2013-08-08 01:41:00,71.3,67.2,30.08,South,173,6.0,7.0,87,0.00,,CLR,0.00,VWS V14.00,2013-08-08 05:41:00,
2013-08-08 01:46:00,71.2,67.5,30.08,South,172,5.0,9.0,88,0.00,,CLR,0.00,VWS V14.00,2013-08-08 05:46:00,
2013-08-08 01:51:00,71.2,67.1,30.07,SSE,164,9.0,11.0,87,0.00,,CLR,0.00,VWS V14.00,2013-08-08 05:51:00,
2013-08-08 01:56:00,71.2,67.5,30.08,SSE,167,9.0,9.0,88,0.00,,CLR,0.00,VWS V14.00,2013-08-08 05:56:00,
2013-08-08 02:01:00,71.2,67.5,30.08,South,169,5.0,10.0,88,0.00,,CLR,0.00,VWS V14.00,2013-08-08 06:01:00,
2013-08-08 02:06:00,71.2,67.5,30.08,SSE,161,7.0,10.0,88,0.00,,CLR,0.00,VWS V14.00,2013-08-08 06:06:00,
2013-08-08 02:11:00,71.2,67.5,30.08,South,172,2.0,8.0,88,0.00,,CLR,0.00,VWS V14.00,2013-08-08 06:11:00,
2013-08-08 02:16:00,71.2,67.5,30.08,South,174,2.0,9.0,88,0.00,,CLR,0.00,VWS V14.00,2013-08-08 06:16:00,
2013-08-08 02:21:00,71.1,67.4,30.07,South,173,0.0,6.0,88,0.00,,CLR,0.00,VWS V14.00,2013-08-08 06:21:00,
2013-08-08 02:26:00,71.2,67.5,30.07,SSE,165,3.0,7.0,88,0.00,,CLR,0.00,VWS V14.00,2013-08-08 06:26:00,
2013-08-08 02:31:00,71.1,67.4,30.07,SSE,157,4.0,11.0,88,0.00,,CLR,0.00,VWS V14.00,2013-08-08 06:31:00,
2013-08-08 02:36:00,71.1,67.7,30.07,SSE,164,3.0,8.0,89,0.00,,CLR,0.00,VWS V14.00,2013-08-08 06:36:00,
2013-08-08 02:41:00,71.1,67.7,30.06,SSE,167,4.0,6.0,89,0.00,,CLR,0.00,VWS V14.00,2013-08-08 06:41:00,
2013-08-08 02:46:00,71.1,67.7,30.06,SSE,168,4.0,6.0,89,0.00,,CLR,0.00,VWS V14.00,2013-08-08 06:46:00,
2013-08-08 02:51:00,71.2,67.8,30.06,SSE,168,0.0,8.0,89,0.00,,CLR,0.00,VWS V14.00,2013-08-08 06:51:00,
2013-08-08 02:56:00,71.2,67.8,30.06,SSE,168,9.0,9.0,89,0.00,,CLR,0.00,VWS V14.00,2013-08-08 06:56:00,
2013-08-08 03:01:00,71.2,67.8,30.06,South,170,0.0,6.0,89,0.00,,CLR,0.00,VWS V14.00,2013-08-08 07:01:00,
2013-08-08 03:06:00,71.3,67.9,30.06,South,172,2.0,9.0,89,0.00,,CLR,0.00,VWS V14.00,2013-08-08 07:06:00,
2013-08-08 03:11:00,71.3,67.9,30.06,South,173,6.0,6.0,89,0.00,,CLR,0.00,VWS V14.00,2013-08-08 07:11:00,
2013-08-08 03:16:00,71.3,67.9,30.06,South,169,5.0,6.0,89,0.00,,CLR,0.00,VWS V14.00,2013-08-08 07:16:00,
2013-08-08 03:21:00,71.3,67.9,30.06,South,171,6.0,6.0,89,0.00,,CLR,0.00,VWS V14.00,2013-08-08 07:21:00,
2013-08-08 03:26:00,71.3,67.9,30.06,South,171,0.0,5.0,89,0.00,,CLR,0.00,VWS V14.00,2013-08-08 07:26:00,
2013-08-08 03:31:00,71.3,67.9,30.06,South,171,5.0,7.0,89,0.00,,CLR,0.00,VWS V14.00,2013-08-08 07:31:00,
2013-08-08 03:36:00,71.3,67.9,30.06,South,171,2.0,5.0,89,0.00,,CLR,0.00,VWS V14.00,2013-08-08 07:36:00,
2013-08-08 03:41:00,71.4,68.0,30.06,South,171,0.0,3.0,89,0.00,,CLR,0.00,VWS V14.00,2013-08-08 07:41:00,
2013-08-08 03:46:00,71.4,68.0,30.06,South,169,3.0,11.0,89,0.00,,CLR,0.00,VWS V14.00,2013-08-08 07:46:00,
2013-08-08 03:51:00,71.4,68.0,30.06,South,169,0.0,5.0,89,0.00,,CLR,0.00,VWS V14.00,2013-08-08 07:51:00,
2013-08-08 03:56:00,71.3,68.2,30.06,South,170,0.0,2.0,90,0.00,,CLR,0.00,VWS V14.00,2013-08-08 07:56:00,
2013-08-08 04:01:00,71.1,68.0,30.06,South,170,1.0,3.0,90,0.01,,CLR,0.01,VWS V14.00,2013-08-08 08:01:00,
2013-08-08 04:06:00,71.0,68.2,30.06,South,170,2.0,8.0,91,0.01,,CLR,0.01,VWS V14.00,2013-08-08 08:06:00,
2013-08-08 04:11:00,71.0,68.2,30.06,South,170,4.0,7.0,91,0.01,,CLR,0.01,VWS V14.00,2013-08-08 08:11:00,
2013-08-08 04:16:00,70.8,68.4,30.06,SSE,167,5.0,7.0,92,0.01,,CLR,0.01,VWS V14.00,2013-08-08 08:16:00,
2013-08-08 04:21:00,70.6,68.2,30.06,SSE,167,0.0,7.0,92,0.02,,CLR,0.02,VWS V14.00,2013-08-08 08:21:00,
2013-08-08 04:26:00,70.5,68.4,30.06,SSE,167,3.0,6.0,93,0.03,,CLR,0.03,VWS V14.00,2013-08-08 08:26:00,
2013-08-08 04:31:00,70.4,68.3,30.06,SSE,164,4.0,9.0,93,0.03,,CLR,0.03,VWS V14.00,2013-08-08 08:31:00,
2013-08-08 04:36:00,70.4,68.3,30.05,SSE,164,1.0,7.0,93,0.03,,CLR,0.03,VWS V14.00,2013-08-08 08:36:00,
2013-08-08 04:41:00,70.3,68.5,30.05,SSE,165,4.0,6.0,94,0.03,,CLR,0.03,VWS V14.00,2013-08-08 08:41:00,
2013-08-08 04:46:00,70.3,68.5,30.05,SSE,165,3.0,6.0,94,0.03,,CLR,0.03,VWS V14.00,2013-08-08 08:46:00,
2013-08-08 04:51:00,70.3,68.5,30.05,SSE,164,1.0,8.0,94,0.03,,CLR,0.03,VWS V14.00,2013-08-08 08:51:00,
2013-08-08 04:56:00,70.3,68.5,30.05,SSE,164,4.0,7.0,94,0.03,,CLR,0.03,VWS V14.00,2013-08-08 08:56:00,
2013-08-08 05:01:00,70.3,68.5,30.05,SSE,164,0.0,4.0,94,0.03,,CLR,0.03,VWS V14.00,2013-08-08 09:01:00,
2013-08-08 05:05:00,70.3,68.5,30.05,SSE,164,0.0,3.0,94,0.02,,CLR,0.03,VWS V14.00,2013-08-08 09:05:00,
2013-08-08 05:10:00,70.3,68.8,30.05,SSE,164,0.0,5.0,95,0.02,,CLR,0.03,VWS V14.00,2013-08-08 09:10:00,
2013-08-08 05:15:00,70.3,68.8,30.05,SSE,164,0.0,4.0,95,0.02,,CLR,0.03,VWS V14.00,2013-08-08 09:15:00,
2013-08-08 05:20:00,70.3,68.8,30.05,SSE,164,0.0,4.0,95,0.02,,CLR,0.03,VWS V14.00,2013-08-08 09:20:00,
2013-08-08 05:25:00,70.3,68.8,30.05,SSE,164,0.0,6.0,95,0.01,,CLR,0.03,VWS V14.00,2013-08-08 09:25:00,
2013-08-08 05:30:00,70.4,68.9,30.05,SSE,164,0.0,2.0,95,0.00,,CLR,0.03,VWS V14.00,2013-08-08 09:30:00,
2013-08-08 05:35:00,70.4,68.9,30.06,SSE,164,0.0,0.0,95,0.00,,CLR,0.03,VWS V14.00,2013-08-08 09:35:00,
2013-08-08 05:40:00,70.5,69.0,30.06,SSE,164,1.0,3.0,95,0.00,,CLR,0.03,VWS V14.00,2013-08-08 09:40:00,
2013-08-08 05:45:00,70.6,69.1,30.06,SSE,164,0.0,5.0,95,0.00,,CLR,0.03,VWS V14.00,2013-08-08 09:45:00,
2013-08-08 05:50:00,70.8,69.3,30.05,South,173,7.0,8.0,95,0.00,,CLR,0.03,VWS V14.00,2013-08-08 09:50:00,
2013-08-08 05:55:00,71.0,69.8,30.05,South,183,5.0,9.0,96,0.00,,CLR,0.03,VWS V14.00,2013-08-08 09:55:00,
2013-08-08 06:00:00,71.2,70.0,30.05,South,181,9.0,10.0,96,0.00,,CLR,0.03,VWS V14.00,2013-08-08 10:00:00,
2013-08-08 06:05:00,71.3,69.8,30.05,South,186,6.0,10.0,95,0.00,,CLR,0.03,VWS V14.00,2013-08-08 10:05:00,
2013-08-08 06:10:00,71.3,69.8,30.05,South,186,7.0,11.0,95,0.00,,CLR,0.03,VWS V14.00,2013-08-08 10:10:00,
2013-08-08 06:15:00,71.4,69.9,30.05,South,190,7.0,10.0,95,0.00,,CLR,0.03,VWS V14.00,2013-08-08 10:15:00,
2013-08-08 06:20:00,71.4,69.9,30.05,SSW,202,10.0,13.0,95,0.00,,CLR,0.03,VWS V14.00,2013-08-08 10:20:00,
2013-08-08 06:25:00,71.5,70.0,30.06,SSW,196,13.0,15.0,95,0.00,,CLR,0.03,VWS V14.00,2013-08-08 10:25:00,
2013-08-08 06:30:00,71.5,70.0,30.06,SSW,203,15.0,15.0,95,0.00,,CLR,0.03,VWS V14.00,2013-08-08 10:30:00,
2013-08-08 06:35:00,71.6,69.8,30.06,SSW,195,13.0,15.0,94,0.00,,CLR,0.03,VWS V14.00,2013-08-08 10:35:00,
2013-08-08 06:40:00,71.5,70.0,30.06,SSW,196,10.0,12.0,95,0.00,,CLR,0.03,VWS V14.00,2013-08-08 10:40:00,
2013-08-08 06:45:00,71.5,70.0,30.06,SSW,201,11.0,17.0,95,0.00,,CLR,0.03,VWS V14.00,2013-08-08 10:45:00,
2013-08-08 06:50:00,71.3,69.5,30.06,SSW,205,9.0,14.0,94,0.00,,CLR,0.03,VWS V14.00,2013-08-08 10:50:00,
2013-08-08 06:55:00,71.3,69.5,30.06,SSW,207,10.0,13.0,94,0.00,,CLR,0.03,VWS V14.00,2013-08-08 10:55:00,
2013-08-08 07:00:00,71.2,69.7,30.06,SSW,209,9.0,14.0,95,0.00,,CLR,0.03,VWS V14.00,2013-08-08 11:00:00,
2013-08-08 07:05:00,71.2,69.7,30.06,SSW,200,5.0,12.0,95,0.00,,CLR,0.03,VWS V14.00,2013-08-08 11:05:00,
2013-08-08 07:10:00,71.2,69.7,30.06,SSW,207,10.0,15.0,95,0.00,,CLR,0.03,VWS V14.00,2013-08-08 11:10:00,
2013-08-08 07:15:00,71.2,69.4,30.06,SSW,204,6.0,11.0,94,0.00,,CLR,0.03,VWS V14.00,2013-08-08 11:15:00,
2013-08-08 07:20:00,71.1,69.3,30.06,SSW,196,4.0,9.0,94,0.00,,CLR,0.03,VWS V14.00,2013-08-08 11:20:00,
2013-08-08 07:25:00,71.1,69.3,30.06,SSW,205,4.0,9.0,94,0.00,,CLR,0.03,VWS V14.00,2013-08-08 11:25:00,
2013-08-08 07:30:00,71.1,69.3,30.06,SSW,208,7.0,9.0,94,0.00,,CLR,0.03,VWS V14.00,2013-08-08 11:30:00,
2013-08-08 07:35:00,71.1,69.3,30.06,SSW,213,6.0,10.0,94,0.00,,CLR,0.03,VWS V14.00,2013-08-08 11:35:00,
2013-08-08 07:40:00,71.1,69.0,30.07,SW,220,7.0,11.0,93,0.00,,CLR,0.03,VWS V14.00,2013-08-08 11:40:00,
2013-08-08 07:45:00,71.1,69.0,30.07,SSW,211,7.0,10.0,93,0.00,,CLR,0.03,VWS V14.00,2013-08-08 11:45:00,
2013-08-08 07:50:00,71.1,69.0,30.07,SSW,211,8.0,9.0,93,0.00,,CLR,0.03,VWS V14.00,2013-08-08 11:50:00,
2013-08-08 07:55:00,71.0,68.9,30.07,SW,219,5.0,11.0,93,0.00,,CLR,0.03,VWS V14.00,2013-08-08 11:55:00,
2013-08-08 08:00:00,71.0,68.9,30.06,SW,215,7.0,9.0,93,0.00,,CLR,0.03,VWS V14.00,2013-08-08 12:00:00,
2013-08-08 08:05:00,71.1,69.0,30.06,SSW,203,5.0,8.0,93,0.00,,CLR,0.03,VWS V14.00,2013-08-08 12:05:00,
2013-08-08 08:10:00,71.1,69.0,30.06,SSW,192,6.0,11.0,93,0.00,,CLR,0.03,VWS V14.00,2013-08-08 12:10:00,
2013-08-08 08:15:00,71.1,69.0,30.06,SSW,200,10.0,10.0,93,0.00,,CLR,0.03,VWS V14.00,2013-08-08 12:15:00,
2013-08-08 08:20:00,71.1,69.0,30.06,SSW,207,8.0,11.0,93,0.00,,CLR,0.03,VWS V14.00,2013-08-08 12:20:00,
2013-08-08 08:25:00,71.2,69.1,30.06,SSW,203,8.0,10.0,93,0.00,,CLR,0.03,VWS V14.00,2013-08-08 12:25:00,
2013-08-08 08:30:00,71.3,69.2,30.06,SSW,200,6.0,11.0,93,0.00,,CLR,0.03,VWS V14.00,2013-08-08 12:30:00,
2013-08-08 08:35:00,71.4,69.3,30.06,SSW,197,10.0,12.0,93,0.00,,CLR,0.03,VWS V14.00,2013-08-08 12:35:00,
2013-08-08 08:40:00,71.5,69.7,30.06,South,190,11.0,11.0,94,0.00,,CLR,0.03,VWS V14.00,2013-08-08 12:40:00,
2013-08-08 08:45:00,71.6,69.5,30.06,SSW,195,9.0,11.0,93,0.00,,CLR,0.03,VWS V14.00,2013-08-08 12:45:00,
2013-08-08 08:50:00,72.0,69.9,30.07,SSW,204,10.0,14.0,93,0.00,,CLR,0.03,VWS V14.00,2013-08-08 12:50:00,
2013-08-08 08:55:00,72.3,70.2,30.07,SW,214,8.0,14.0,93,0.00,,CLR,0.03,VWS V14.00,2013-08-08 12:55:00,
2013-08-08 09:00:00,72.4,69.9,30.07,SSW,200,10.0,10.0,92,0.00,,CLR,0.03,VWS V14.00,2013-08-08 13:00:00,
2013-08-08 09:05:00,72.7,70.2,30.07,SSW,205,7.0,11.0,92,0.00,,CLR,0.03,VWS V14.00,2013-08-08 13:05:00,
2013-08-08 09:10:00,72.9,70.4,30.06,SSW,199,6.0,10.0,92,0.00,,CLR,0.03,VWS V14.00,2013-08-08 13:10:00,
2013-08-08 09:15:00,72.9,70.4,30.07,SSW,213,5.0,11.0,92,0.00,,CLR,0.03,VWS V14.00,2013-08-08 13:15:00,
2013-08-08 09:20:00,72.7,70.2,30.07,SSW,195,6.0,13.0,92,0.00,,CLR,0.03,VWS V14.00,2013-08-08 13:20:00,
2013-08-08 09:25:00,72.4,69.9,30.07,SSW,205,5.0,11.0,92,0.00,,CLR,0.03,VWS V14.00,2013-08-08 13:25:00,
2013-08-08 09:30:00,72.2,70.1,30.07,SSW,205,10.0,12.0,93,0.01,,CLR,0.04,VWS V14.00,2013-08-08 13:30:00,
2013-08-08 09:35:00,71.8,70.0,30.07,SSW,207,9.0,11.0,94,0.02,,CLR,0.05,VWS V14.00,2013-08-08 13:35:00,
2013-08-08 09:40:00,71.5,70.0,30.06,SSW,198,9.0,11.0,95,0.03,,CLR,0.06,VWS V14.00,2013-08-08 13:40:00,
2013-08-08 09:45:00,71.4,69.9,30.06,SSW,202,7.0,10.0,95,0.03,,CLR,0.06,VWS V14.00,2013-08-08 13:45:00,
2013-08-08 09:50:00,71.4,69.9,30.07,SSW,199,6.0,10.0,95,0.03,,CLR,0.06,VWS V14.00,2013-08-08 13:50:00,
2013-08-08 09:55:00,71.4,69.9,30.07,SSW,206,12.0,12.0,95,0.03,,CLR,0.06,VWS V14.00,2013-08-08 13:55:00,
2013-08-08 10:00:00,71.5,70.0,30.07,SSW,200,7.0,10.0,95,0.03,,CLR,0.06,VWS V14.00,2013-08-08 14:00:00,
2013-08-08 10:05:00,71.7,70.2,30.07,SSW,211,6.0,11.0,95,0.03,,CLR,0.06,VWS V14.00,2013-08-08 14:05:00,
2013-08-08 10:10:00,71.9,70.4,30.07,SSW,212,10.0,11.0,95,0.03,,CLR,0.06,VWS V14.00,2013-08-08 14:10:00,
2013-08-08 10:15:00,72.0,70.5,30.07,SSW,207,9.0,11.0,95,0.03,,CLR,0.06,VWS V14.00,2013-08-08 14:15:00,
2013-08-08 10:20:00,72.2,70.4,30.07,SSW,206,5.0,10.0,94,0.03,,CLR,0.06,VWS V14.00,2013-08-08 14:20:00,
2013-08-08 10:25:00,72.4,70.6,30.07,SSW,200,6.0,10.0,94,0.03,,CLR,0.06,VWS V14.00,2013-08-08 14:25:00,
2013-08-08 10:30:00,72.6,70.8,30.07,SSW,202,5.0,9.0,94,0.03,,CLR,0.06,VWS V14.00,2013-08-08 14:30:00,
2013-08-08 10:35:00,72.5,70.7,30.07,SSW,202,3.0,7.0,94,0.01,,CLR,0.06,VWS V14.00,2013-08-08 14:35:00,
2013-08-08 10:40:00,72.5,70.7,30.07,SSW,199,4.0,8.0,94,0.01,,CLR,0.06,VWS V14.00,2013-08-08 14:40:00,
2013-08-08 10:45:00,72.8,71.0,30.07,SSW,198,4.0,6.0,94,0.00,,CLR,0.06,VWS V14.00,2013-08-08 14:45:00,
2013-08-08 10:50:00,73.0,71.2,30.07,SSW,197,6.0,6.0,94,0.00,,CLR,0.06,VWS V14.00,2013-08-08 14:50:00,
2013-08-08 10:55:00,73.2,71.1,30.07,SSW,198,5.0,6.0,93,0.00,,CLR,0.06,VWS V14.00,2013-08-08 14:55:00,
2013-08-08 11:00:00,73.0,70.9,30.07,SSW,202,3.0,9.0,93,0.00,,CLR,0.06,VWS V14.00,2013-08-08 15:00:00,
2013-08-08 11:05:00,73.0,70.9,30.07,SSW,205,6.0,9.0,93,0.00,,CLR,0.06,VWS V14.00,2013-08-08 15:05:00,
2013-08-08 11:10:00,72.8,70.7,30.06,SSW,201,4.0,9.0,93,0.00,,CLR,0.06,VWS V14.00,2013-08-08 15:10:00,
2013-08-08 11:15:00,73.2,71.1,30.06,SSW,196,6.0,8.0,93,0.00,,CLR,0.06,VWS V14.00,2013-08-08 15:15:00,
2013-08-08 11:20:00,73.9,71.8,30.06,SSW,198,9.0,10.0,93,0.00,,CLR,0.06,VWS V14.00,2013-08-08 15:20:00,
2013-08-08 11:25:00,74.6,72.4,30.05,SSW,199,3.0,10.0,93,0.00,,CLR,0.06,VWS V14.00,2013-08-08 15:25:00,
2013-08-08 11:30:00,75.3,72.5,30.05,SSW,204,8.0,10.0,91,0.00,,CLR,0.06,VWS V14.00,2013-08-08 15:30:00,
2013-08-08 11:35:00,75.5,72.4,30.05,South,183,9.0,13.0,90,0.00,,CLR,0.06,VWS V14.00,2013-08-08 15:35:00,
2013-08-08 11:40:00,75.7,72.2,30.05,SW,221,9.0,11.0,89,0.00,,CLR,0.06,VWS V14.00,2013-08-08 15:40:00,
2013-08-08 11:45:00,76.0,72.5,30.05,SW,215,10.0,10.0,89,0.00,,CLR,0.06,VWS V14.00,2013-08-08 15:45:00,
2013-08-08 11:50:00,75.6,71.8,30.05,SW,227,11.0,15.0,88,0.00,,CLR,0.06,VWS V14.00,2013-08-08 15:50:00,
2013-08-08 11:55:00,75.3,71.5,30.05,SW,219,9.0,14.0,88,0.00,,CLR,0.06,VWS V14.00,2013-08-08 15:55:00,
2013-08-08 12:00:00,75.5,71.7,30.05,SSW,205,5.0,11.0,88,0.00,,CLR,0.06,VWS V14.00,2013-08-08 16:00:00,
2013-08-08 12:05:00,76.1,72.3,30.05,SSW,205,10.0,12.0,88,0.00,,CLR,0.06,VWS V14.00,2013-08-08 16:05:00,
2013-08-08 12:10:00,76.1,72.3,30.04,SSW,207,6.0,12.0,88,0.00,,CLR,0.06,VWS V14.00,2013-08-08 16:10:00,
2013-08-08 12:15:00,76.0,72.2,30.04,SW,218,9.0,11.0,88,0.00,,CLR,0.06,VWS V14.00,2013-08-08 16:15:00,
2013-08-08 12:20:00,76.3,72.5,30.04,SSW,198,10.0,12.0,88,0.00,,CLR,0.06,VWS V14.00,2013-08-08 16:20:00,
2013-08-08 12:25:00,76.4,72.2,30.05,SSW,205,7.0,12.0,87,0.00,,CLR,0.06,VWS V14.00,2013-08-08 16:25:00,
2013-08-08 12:30:00,76.5,72.7,30.05,SSW,210,10.0,12.0,88,0.00,,CLR,0.06,VWS V14.00,2013-08-08 16:30:00,
2013-08-08 12:35:00,76.3,72.5,30.05,SSW,213,13.0,13.0,88,0.00,,CLR,0.06,VWS V14.00,2013-08-08 16:35:00,
2013-08-08 12:40:00,76.3,72.5,30.05,SW,215,12.0,12.0,88,0.00,,CLR,0.06,VWS V14.00,2013-08-08 16:40:00,
2013-08-08 12:45:00,76.0,72.2,30.05,SSW,212,7.0,12.0,88,0.00,,CLR,0.06,VWS V14.00,2013-08-08 16:45:00,
2013-08-08 12:50:00,76.3,72.5,30.05,SSW,202,6.0,12.0,88,0.00,,CLR,0.06,VWS V14.00,2013-08-08 16:50:00,
2013-08-08 12:55:00,76.2,72.1,30.05,SW,221,7.0,10.0,87,0.00,,CLR,0.06,VWS V14.00,2013-08-08 16:55:00,
2013-08-08 13:00:00,75.8,72.0,30.05,SSW,211,6.0,7.0,88,0.00,,CLR,0.06,VWS V14.00,2013-08-08 17:00:00,
2013-08-08 13:05:00,75.6,71.8,30.05,SSW,211,4.0,7.0,88,0.00,,CLR,0.06,VWS V14.00,2013-08-08 17:05:00,
2013-08-08 13:10:00,75.8,72.0,30.04,SSW,203,9.0,9.0,88,0.00,,CLR,0.06,VWS V14.00,2013-08-08 17:10:00,
2013-08-08 13:15:00,76.2,72.1,30.04,SSW,196,6.0,10.0,87,0.00,,CLR,0.06,VWS V14.00,2013-08-08 17:15:00,
2013-08-08 13:20:00,76.7,72.5,30.04,SSW,195,7.0,10.0,87,0.00,,CLR,0.06,VWS V14.00,2013-08-08 17:20:00,
2013-08-08 13:25:00,77.0,72.5,30.04,SSW,212,6.0,14.0,86,0.00,,CLR,0.06,VWS V14.00,2013-08-08 17:25:00,
2013-08-08 13:30:00,77.2,73.0,30.05,SW,214,9.0,11.0,87,0.00,,CLR,0.06,VWS V14.00,2013-08-08 17:30:00,
2013-08-08 13:35:00,77.3,72.8,30.05,SW,220,7.0,8.0,86,0.00,,OVC021,0.06,VWS V14.00,2013-08-08 17:35:00,
2013-08-08 13:40:00,77.3,72.8,30.05,WSW,237,9.0,11.0,86,0.00,,OVC021,0.06,VWS V14.00,2013-08-08 17:40:00,
2013-08-08 13:44:00,76.4,72.2,30.05,SSW,211,9.0,9.0,87,0.00,,OVC021,0.06,VWS V14.00,2013-08-08 17:44:00,
2013-08-08 13:49:00,76.1,72.3,30.05,SW,218,7.0,9.0,88,0.00,,OVC021,0.06,VWS V14.00,2013-08-08 17:49:00,
2013-08-08 13:54:00,75.8,72.0,30.05,SW,221,7.0,7.0,88,0.00,,OVC021,0.06,VWS V14.00,2013-08-08 17:54:00,
2013-08-08 13:59:00,75.7,72.2,30.05,SW,221,6.0,7.0,89,0.00,,OVC021,0.06,VWS V14.00,2013-08-08 17:59:00,
2013-08-08 14:04:00,76.4,73.2,30.05,SW,222,6.0,9.0,90,0.00,,OVC021,0.06,VWS V14.00,2013-08-08 18:04:00,
2013-08-08 14:09:00,76.7,72.9,30.05,SW,225,3.0,6.0,88,0.00,,OVC021,0.06,VWS V14.00,2013-08-08 18:09:00,
2013-08-08 14:14:00,76.5,72.7,30.05,SW,216,5.0,10.0,88,0.00,,OVC021,0.06,VWS V14.00,2013-08-08 18:14:00,
2013-08-08 14:19:00,76.7,72.9,30.05,SW,216,0.0,7.0,88,0.00,,OVC021,0.06,VWS V14.00,2013-08-08 18:19:00,
2013-08-08 14:24:00,77.2,73.0,30.05,SW,225,0.0,10.0,87,0.00,,OVC021,0.06,VWS V14.00,2013-08-08 18:24:00,
2013-08-08 14:29:00,76.7,72.5,30.05,SW,220,6.0,7.0,87,0.00,,OVC021,0.06,VWS V14.00,2013-08-08 18:29:00,
2013-08-08 14:34:00,76.8,73.3,30.05,SW,217,1.0,5.0,89,0.00,,OVC019,0.06,VWS V14.00,2013-08-08 18:34:00,
2013-08-08 14:39:00,77.3,73.1,30.05,SW,223,3.0,15.0,87,0.00,,OVC019,0.06,VWS V14.00,2013-08-08 18:39:00,
2013-08-08 14:44:00,77.2,72.7,30.05,SW,217,4.0,8.0,86,0.00,,OVC019,0.06,VWS V14.00,2013-08-08 18:44:00,
2013-08-08 14:49:00,76.9,72.7,30.05,SSW,207,4.0,10.0,87,0.00,,OVC019,0.06,VWS V14.00,2013-08-08 18:49:00,
2013-08-08 14:54:00,77.2,73.4,30.05,SW,221,11.0,11.0,88,0.00,,OVC019,0.06,VWS V14.00,2013-08-08 18:54:00,
2013-08-08 14:59:00,76.7,72.5,30.05,SW,235,1.0,9.0,87,0.00,,OVC019,0.06,VWS V14.00,2013-08-08 18:59:00,
2013-08-08 15:04:00,76.9,73.1,30.05,SW,227,6.0,7.0,88,0.00,,OVC019,0.06,VWS V14.00,2013-08-08 19:04:00,
2013-08-08 15:09:00,76.6,72.4,30.05,SW,232,9.0,9.0,87,0.00,,OVC019,0.06,VWS V14.00,2013-08-08 19:09:00,
2013-08-08 15:14:00,76.4,72.6,30.05,SW,232,0.0,1.0,88,0.00,,OVC019,0.06,VWS V14.00,2013-08-08 19:14:00,
2013-08-08 15:19:00,76.6,72.8,30.05,SW,221,5.0,5.0,88,0.00,,OVC019,0.06,VWS V14.00,2013-08-08 19:19:00,
2013-08-08 15:24:00,76.7,72.9,30.05,SW,219,0.0,3.0,88,0.00,,OVC019,0.06,VWS V14.00,2013-08-08 19:24:00,
2013-08-08 15:29:00,76.9,72.7,30.05,SW,224,3.0,6.0,87,0.00,,OVC019,0.06,VWS V14.00,2013-08-08 19:29:00,
2013-08-08 15:34:00,77.2,73.0,30.04,SW,223,5.0,8.0,87,0.00,,OVC029,0.06,VWS V14.00,2013-08-08 19:34:00,
2013-08-08 15:39:00,77.5,73.3,30.04,SW,222,5.0,7.0,87,0.00,,OVC029,0.06,VWS V14.00,2013-08-08 19:39:00,
2013-08-08 15:44:00,77.3,72.8,30.04,SW,222,5.0,5.0,86,0.00,,OVC029,0.06,VWS V14.00,2013-08-08 19:44:00,
2013-08-08 15:49:00,77.3,73.1,30.04,SW,221,2.0,4.0,87,0.00,,OVC029,0.06,VWS V14.00,2013-08-08 19:49:00,
2013-08-08 15:54:00,77.5,73.3,30.04,SW,219,1.0,5.0,87,0.00,,OVC029,0.06,VWS V14.00,2013-08-08 19:54:00,
2013-08-08 15:59:00,77.5,73.3,30.03,SW,219,2.0,4.0,87,0.00,,OVC029,0.06,VWS V14.00,2013-08-08 19:59:00,
2013-08-08 16:04:00,77.4,73.2,30.03,SW,235,1.0,12.0,87,0.00,,OVC029,0.06,VWS V14.00,2013-08-08 20:04:00,
2013-08-08 16:09:00,77.7,73.5,30.03,SW,219,3.0,6.0,87,0.00,,OVC029,0.06,VWS V14.00,2013-08-08 20:09:00,
2013-08-08 16:14:00,77.9,73.4,30.03,SW,221,1.0,5.0,86,0.00,,OVC029,0.06,VWS V14.00,2013-08-08 20:14:00,
2013-08-08 16:19:00,77.8,72.9,30.03,SW,223,0.0,5.0,85,0.00,,OVC029,0.06,VWS V14.00,2013-08-08 20:19:00,
2013-08-08 16:24:00,77.3,72.8,30.03,SW,223,0.0,3.0,86,0.00,,OVC029,0.06,VWS V14.00,2013-08-08 20:24:00,
2013-08-08 16:29:00,77.1,72.9,30.03,SW,223,0.0,0.0,87,0.00,,OVC029,0.06,VWS V14.00,2013-08-08 20:29:00,
2013-08-08 16:34:00,77.2,73.0,30.03,SW,225,1.0,6.0,87,0.00,,,0.06,VWS V14.00,2013-08-08 20:34:00,
2013-08-08 16:39:00,77.6,73.4,30.03,SW,217,6.0,7.0,87,0.00,,,0.06,VWS V14.00,2013-08-08 20:39:00,
2013-08-08 16:44:00,77.7,73.5,30.03,SSW,202,6.0,10.0,87,0.00,,,0.06,VWS V14.00,2013-08-08 20:44:00,
2013-08-08 16:49:00,78.0,73.8,30.03,SSW,211,5.0,7.0,87,0.00,,,0.06,VWS V14.00,2013-08-08 20:49:00,
2013-08-08 16:54:00,79.1,74.6,30.03,SSW,200,6.0,7.0,86,0.00,,,0.06,VWS V14.00,2013-08-08 20:54:00,
2013-08-08 16:59:00,79.0,74.1,30.03,SW,225,9.0,9.0,85,0.00,,,0.06,VWS V14.00,2013-08-08 20:59:00,
2013-08-08 17:04:00,78.6,73.7,30.03,SSW,213,14.0,14.0,85,0.00,,,0.06,VWS V14.00,2013-08-08 21:04:00,
2013-08-08 17:09:00,78.1,73.6,30.03,SSW,213,8.0,11.0,86,0.00,,,0.06,VWS V14.00,2013-08-08 21:09:00,
2013-08-08 17:14:00,77.8,73.3,30.03,SW,217,10.0,12.0,86,0.00,,,0.06,VWS V14.00,2013-08-08 21:14:00,
2013-08-08 17:19:00,77.6,73.4,30.03,SSW,209,6.0,9.0,87,0.00,,,0.06,VWS V14.00,2013-08-08 21:19:00,
2013-08-08 17:25:00,77.6,73.4,30.02,SSW,199,9.0,11.0,87,0.00,,,0.06,VWS V14.00,2013-08-08 21:25:00,
2013-08-08 17:30:00,77.1,72.9,30.03,SSW,203,11.0,11.0,87,0.00,,,0.06,VWS V14.00,2013-08-08 21:30:00,
2013-08-08 17:35:00,76.6,72.8,30.03,SSW,200,6.0,7.0,88,0.00,,BKN028,0.06,VWS V14.00,2013-08-08 21:35:00,
2013-08-08 17:40:00,76.3,72.8,30.03,SSW,202,7.0,11.0,89,0.00,,BKN028,0.06,VWS V14.00,2013-08-08 21:40:00,
2013-08-08 17:45:00,76.2,72.7,30.02,SSW,213,12.0,12.0,89,0.00,,BKN028,0.06,VWS V14.00,2013-08-08 21:45:00,
2013-08-08 17:50:00,76.1,72.6,30.02,SW,221,4.0,14.0,89,0.00,,BKN028,0.06,VWS V14.00,2013-08-08 21:50:00,
2013-08-08 17:55:00,76.0,72.9,30.02,SW,215,6.0,10.0,90,0.00,,BKN028,0.06,VWS V14.00,2013-08-08 21:55:00,
2013-08-08 18:00:00,76.1,73.0,30.02,SSW,211,4.0,7.0,90,0.00,,BKN028,0.06,VWS V14.00,2013-08-08 22:00:00,
2013-08-08 18:05:00,75.9,72.4,30.02,SW,223,9.0,11.0,89,0.00,,BKN028,0.06,VWS V14.00,2013-08-08 22:05:00,
2013-08-08 18:10:00,75.6,72.5,30.02,SSW,211,8.0,11.0,90,0.00,,BKN028,0.06,VWS V14.00,2013-08-08 22:10:00,
2013-08-08 18:15:00,75.5,72.4,30.02,SW,214,13.0,14.0,90,0.00,,BKN028,0.06,VWS V14.00,2013-08-08 22:15:00,
2013-08-08 18:20:00,75.3,72.2,30.02,SW,217,10.0,17.0,90,0.00,,BKN028,0.06,VWS V14.00,2013-08-08 22:20:00,
2013-08-08 18:25:00,75.3,72.5,30.02,SSW,209,9.0,12.0,91,0.00,,BKN028,0.06,VWS V14.00,2013-08-08 22:25:00,
2013-08-08 18:30:00,75.3,72.5,30.03,SSW,200,9.0,15.0,91,0.00,,BKN028,0.06,VWS V14.00,2013-08-08 22:30:00,
2013-08-08 18:35:00,75.3,72.5,30.03,SSW,207,9.0,11.0,91,0.00,,OVC017,0.06,VWS V14.00,2013-08-08 22:35:00,
2013-08-08 18:40:00,75.2,72.4,30.03,SSW,207,8.0,13.0,91,0.00,,OVC017,0.06,VWS V14.00,2013-08-08 22:40:00,
2013-08-08 18:45:00,75.1,72.3,30.03,SW,214,7.0,11.0,91,0.00,,OVC017,0.06,VWS V14.00,2013-08-08 22:45:00,
2013-08-08 18:50:00,74.9,72.1,30.03,SW,214,5.0,10.0,91,0.00,,OVC017,0.06,VWS V14.00,2013-08-08 22:50:00,
2013-08-08 18:56:00,74.8,72.0,30.03,SW,214,0.0,5.0,91,0.00,,OVC017,0.06,VWS V14.00,2013-08-08 22:56:00,
2013-08-08 19:01:00,74.7,72.2,30.03,SW,214,0.0,7.0,92,0.00,,OVC017,0.06,VWS V14.00,2013-08-08 23:01:00,
2013-08-08 19:06:00,74.6,72.1,30.02,SW,214,1.0,6.0,92,0.00,,OVC017,0.06,VWS V14.00,2013-08-08 23:06:00,
2013-08-08 19:11:00,74.5,72.0,30.02,SW,214,2.0,5.0,92,0.00,,OVC017,0.06,VWS V14.00,2013-08-08 23:11:00,
2013-08-08 19:16:00,74.3,72.2,30.01,SW,214,0.0,4.0,93,0.00,,OVC017,0.06,VWS V14.00,2013-08-08 23:16:00,
2013-08-08 19:21:00,74.2,72.1,30.02,SW,214,0.0,4.0,93,0.00,,OVC017,0.06,VWS V14.00,2013-08-08 23:21:00,
2013-08-08 19:26:00,74.0,71.8,30.02,SW,214,4.0,4.0,93,0.00,,OVC017,0.06,VWS V14.00,2013-08-08 23:26:00,
2013-08-08 19:31:00,74.0,71.8,30.02,SW,214,2.0,7.0,93,0.00,,OVC019,0.06,VWS V14.00,2013-08-08 23:31:00,
2013-08-08 19:36:00,74.0,71.8,30.02,SW,214,3.0,6.0,93,0.00,,OVC019,0.06,VWS V14.00,2013-08-08 23:36:00,
2013-08-08 19:41:00,73.9,71.8,30.02,SW,214,2.0,5.0,93,0.00,,OVC019,0.06,VWS V14.00,2013-08-08 23:41:00,
2013-08-08 19:46:00,73.9,71.8,30.03,SW,214,6.0,7.0,93,0.00,,OVC019,0.06,VWS V14.00,2013-08-08 23:46:00,
2013-08-08 19:51:00,73.9,71.8,30.03,SW,214,0.0,6.0,93,0.00,,OVC019,0.06,VWS V14.00,2013-08-08 23:51:00,
2013-08-08 19:56:00,73.8,72.0,30.03,SSW,210,2.0,7.0,94,0.00,,OVC019,0.06,VWS V14.00,2013-08-08 23:56:00,
2013-08-08 20:01:00,73.8,72.0,30.03,SSW,211,0.0,9.0,94,0.00,,OVC019,0.06,VWS V14.00,2013-08-09 00:01:00,
2013-08-08 20:06:00,73.7,71.9,30.03,SSW,211,3.0,7.0,94,0.00,,OVC019,0.06,VWS V14.00,2013-08-09 00:06:00,
2013-08-08 20:11:00,73.6,71.8,30.03,SW,217,7.0,10.0,94,0.00,,OVC019,0.06,VWS V14.00,2013-08-09 00:11:00,
2013-08-08 20:16:00,73.6,71.8,30.03,SW,216,4.0,8.0,94,0.00,,OVC019,0.06,VWS V14.00,2013-08-09 00:16:00,
2013-08-08 20:21:00,73.5,71.7,30.03,SW,215,1.0,7.0,94,0.00,,OVC019,0.06,VWS V14.00,2013-08-09 00:21:00,
2013-08-08 20:26:00,73.4,71.6,30.04,SW,215,4.0,7.0,94,0.00,,OVC019,0.06,VWS V14.00,2013-08-09 00:26:00,
2013-08-08 20:31:00,73.3,71.5,30.04,SW,215,4.0,4.0,94,0.00,,OVC014,0.06,VWS V14.00,2013-08-09 00:31:00,
2013-08-08 20:36:00,73.2,71.4,30.04,SW,215,0.0,4.0,94,0.00,,OVC014,0.06,VWS V14.00,2013-08-09 00:36:00,
2013-08-08 20:42:00,73.1,71.6,30.04,SW,215,1.0,4.0,95,0.00,,OVC014,0.06,VWS V14.00,2013-08-09 00:42:00,
2013-08-08 20:47:00,73.0,71.5,30.04,SW,215,3.0,4.0,95,0.00,,OVC014,0.06,VWS V14.00,2013-08-09 00:47:00,
2013-08-08 20:52:00,73.0,71.5,30.04,SW,215,3.0,4.0,95,0.00,,OVC014,0.06,VWS V14.00,2013-08-09 00:52:00,
2013-08-08 20:57:00,73.0,71.5,30.05,SW,216,1.0,6.0,95,0.00,,OVC014,0.06,VWS V14.00,2013-08-09 00:57:00,
2013-08-08 21:03:00,73.1,71.6,30.05,SW,215,1.0,7.0,95,0.00,,OVC014,0.06,VWS V14.00,2013-08-09 01:03:00,
2013-08-08 21:08:00,73.1,71.6,30.05,SW,215,3.0,6.0,95,0.00,,OVC014,0.06,VWS V14.00,2013-08-09 01:08:00,
2013-08-08 21:13:00,73.1,71.6,30.04,SSW,213,6.0,8.0,95,0.00,,OVC014,0.06,VWS V14.00,2013-08-09 01:13:00,
2013-08-08 21:18:00,73.1,71.6,30.04,SSW,210,3.0,6.0,95,0.00,,OVC014,0.06,VWS V14.00,2013-08-09 01:18:00,
2013-08-08 21:23:00,73.1,71.6,30.04,SSW,209,2.0,6.0,95,0.00,,OVC014,0.06,VWS V14.00,2013-08-09 01:23:00,
2013-08-08 21:28:00,73.1,71.6,30.05,SSW,209,2.0,6.0,95,0.00,,OVC014,0.06,VWS V14.00,2013-08-09 01:28:00,
2013-08-08 21:33:00,73.1,71.9,30.05,SSW,209,0.0,6.0,96,0.00,,BKN037,0.06,VWS V14.00,2013-08-09 01:33:00,
2013-08-08 21:38:00,73.0,71.8,30.05,SSW,209,1.0,4.0,96,0.00,,BKN037,0.06,VWS V14.00,2013-08-09 01:38:00,
2013-08-08 21:43:00,73.0,71.8,30.05,SSW,209,0.0,2.0,96,0.00,,BKN037,0.06,VWS V14.00,2013-08-09 01:43:00,
2013-08-08 21:48:00,72.9,71.7,30.04,SSW,209,1.0,3.0,96,0.00,,BKN037,0.06,VWS V14.00,2013-08-09 01:48:00,
2013-08-08 21:53:00,72.9,71.7,30.05,SSW,209,0.0,2.0,96,0.00,,BKN037,0.06,VWS V14.00,2013-08-09 01:53:00,
2013-08-08 21:58:00,72.9,71.7,30.04,SSW,209,1.0,1.0,96,0.00,,BKN037,0.06,VWS V14.00,2013-08-09 01:58:00,
2013-08-08 22:03:00,72.9,71.7,30.05,SSW,209,0.0,0.0,96,0.00,,BKN037,0.06,VWS V14.00,2013-08-09 02:03:00,
2013-08-08 22:08:00,72.9,71.7,30.05,SSW,209,0.0,3.0,96,0.00,,BKN037,0.06,VWS V14.00,2013-08-09 02:08:00,
2013-08-08 22:14:00,72.9,71.7,30.04,SSW,209,1.0,1.0,96,0.00,,BKN037,0.06,VWS V14.00,2013-08-09 02:14:00,
2013-08-08 22:19:00,72.8,71.6,30.04,SSW,209,2.0,2.0,96,0.00,,BKN037,0.06,VWS V14.00,2013-08-09 02:19:00,
2013-08-08 22:24:00,72.8,71.6,30.04,SSW,209,0.0,0.0,96,0.00,,BKN037,0.06,VWS V14.00,2013-08-09 02:24:00,
2013-08-08 22:29:00,72.7,71.5,30.04,SSW,209,0.0,2.0,96,0.00,,BKN037,0.06,VWS V14.00,2013-08-09 02:29:00,
2013-08-08 22:34:00,72.7,71.5,30.04,SSW,209,0.0,3.0,96,0.00,,SCT014,0.06,VWS V14.00,2013-08-09 02:34:00,
2013-08-08 22:39:00,72.7,71.5,30.03,SSW,209,0.0,0.0,96,0.00,,SCT014,0.06,VWS V14.00,2013-08-09 02:39:00,
2013-08-08 22:44:00,72.6,71.4,30.04,SSW,209,0.0,0.0,96,0.00,,SCT014,0.06,VWS V14.00,2013-08-09 02:44:00,
2013-08-08 22:49:00,72.6,71.4,30.03,SSW,209,0.0,2.0,96,0.00,,SCT014,0.06,VWS V14.00,2013-08-09 02:49:00,
2013-08-08 22:54:00,72.6,71.4,30.04,SSW,209,0.0,1.0,96,0.00,,SCT014,0.06,VWS V14.00,2013-08-09 02:54:00,
2013-08-08 23:00:00,72.6,71.4,30.04,SSW,209,3.0,3.0,96,0.00,,SCT014,0.06,VWS V14.00,2013-08-09 03:00:00,
2013-08-08 23:05:00,72.6,71.4,30.04,SSW,209,1.0,4.0,96,0.00,,SCT014,0.06,VWS V14.00,2013-08-09 03:05:00,
2013-08-08 23:10:00,72.6,71.4,30.04,SSW,209,3.0,3.0,96,0.00,,SCT014,0.06,VWS V14.00,2013-08-09 03:10:00,
2013-08-08 23:15:00,72.6,71.4,30.03,SSW,209,1.0,3.0,96,0.00,,SCT014,0.06,VWS V14.00,2013-08-09 03:15:00,
2013-08-08 23:20:00,72.6,71.4,30.03,SSW,209,0.0,0.0,96,0.00,,SCT014,0.06,VWS V14.00,2013-08-09 03:20:00,
2013-08-08 23:25:00,72.6,71.4,30.03,SSW,209,0.0,0.0,96,0.00,,SCT014,0.06,VWS V14.00,2013-08-09 03:25:00,
2013-08-08 23:30:00,72.5,71.3,30.03,SSW,209,3.0,3.0,96,0.00,,SCT014,0.06,VWS V14.00,2013-08-09 03:30:00,
2013-08-08 23:35:00,72.6,71.4,30.03,SSW,209,3.0,3.0,96,0.00,,FEW015,0.06,VWS V14.00,2013-08-09 03:35:00,
2013-08-08 23:40:00,72.7,71.5,30.03,SSW,209,0.0,1.0,96,0.00,,FEW015,0.06,VWS V14.00,2013-08-09 03:40:00,
2013-08-08 23:45:00,72.7,71.5,30.03,SSW,209,0.0,0.0,96,0.00,,FEW015,0.06,VWS V14.00,2013-08-09 03:45:00,
2013-08-08 23:50:00,72.7,71.5,30.04,SSW,209,0.0,0.0,96,0.00,,FEW015,0.06,VWS V14.00,2013-08-09 03:50:00,
2013-08-08 23:55:00,72.7,71.5,30.03,SSW,209,0.0,0.0,96,0.00,,FEW015,0.06,VWS V14.00,2013-08-09 03:55:00,